MOLNIYA 3-13

Satellite information

Favourite Embed

Satellite Type and Status

PAYLOADIN ORBIT

Key statistics

Satellite MOLNIYA 3-13 at a glance.

Uptime

16425

Days in orbit

Revolutions

≈ 2.0

Per day

Orbit

HEO

HEO

Inclination

63.7

Latest

Satellite identification and parameters

Extended collection of information and parameters for MOLNIYA 3-13.

Object identification

Identified? True

Debris? False

Object name: MOLNIYA 3-13

International designator: 1980-063A

Object number (NORAD): 11896

Object ID (CCSDS): 11896

Country: COMMONWEALTH OF INDEPENDENT STATES (CIS)

Current information (Y/N): Y

RCS size: LARGE

Orbital parameters

Period: 717.876 minutes

Inclination: 63.7108 deg

SMA: 26557.874 km

Apoapsis: 39596.817 km

Periapsis: 762.661 km

RAAN: 338.7969 deg

Eccentricy: 0.7311232

Argument of periapsis: 278.0777 deg

Mean anomaly: 12.1158 deg

Mean motion: 2.00591625 rev/day

Mean motion (dot): -0.00000526 rev/day2

B* drag term: -0.0013019 1/REarth

Two-line elements (TLE)

Creation date: July 6, 2025, 4:10 a.m.

Reference frame: TEME

Reference center: EARTH

Epoch: July 5, 2025, 10:52 a.m. UTC

TLE line 0: 0 MOLNIYA 3-13

TLE line 1: 1 11896U 80063A 25186.45337837 -.00000526 00000-0 -13019-2 0 9995

TLE line 2: 2 11896 63.7108 338.7969 7311232 278.0777 12.1158 2.00591625329444

Live tracking on map

Real-time ground track for satellite MOLNIYA 3-13.

In-orbit conjunctions

A list of the most updated potential collisions computed for object MOLNIYA 3-13.

Target Orbit TCA Probability of collision Miss distance Type
MOLNIYA 1-63 HEO 2024-11-02 00:34:16 TBA 1187.0 (m) PAYLOAD

Associated space launch

Molniya communication satellites operating from a highly elliptical orbit

MOLNIYA 3-13 was lifted into orbit during the mission ‘Molniya-M | Molniya-3 27L’, on board a Molniya-M space rocket.

The launch took place on July 18, 1980, 10:37 a.m. from 43/3 (43L).

For more information about the launch, click the button.

Launch to space Molniya-M | Molniya-3 27L
Molniya-M | Molniya-3 27L

Agency: N/A

Status: Launch Successful

Launch date: July 18, 1980, 10:37 a.m. UTC

Rocket: Molniya-M

Launch pad: 43/3 (43L)

Location: Plesetsk Cosmodrome, Russian Federation

...

Latest news about this satellite

There are no fresh news available about this satellite. Check back as we update our databases every day.


Newsletter sign-up

Weekly statistics, charts and insights to help you stay on top of the space industry.